Time,TemperatureF,DewpointF,PressureIn,WindDirection,WindDirectionDegrees,WindSpeedMPH,WindSpeedGustMPH,Humidity,HourlyPrecipIn,Conditions,Clouds,dailyrainin,SoftwareType,DateUTC
2013-02-28 00:01:00,43.0,8.0,30.24,SE,126,7.0,11.0,23,0.00,,,0.00,,2013-02-28 08:01:00,
2013-02-28 00:11:00,43.0,8.0,30.24,SE,126,7.0,11.0,23,0.00,,,0.00,,2013-02-28 08:11:00,
2013-02-28 00:21:00,43.0,8.0,30.24,SE,124,9.0,14.0,23,0.00,,,0.00,,2013-02-28 08:21:00,
2013-02-28 00:31:00,43.0,8.0,30.23,SE,126,7.0,12.0,23,0.00,,,0.00,,2013-02-28 08:31:00,
2013-02-28 00:41:00,43.0,8.0,30.23,SE,126,7.0,12.0,23,0.00,,,0.00,,2013-02-28 08:41:00,
2013-02-28 00:52:00,43.0,7.0,30.24,ESE,123,5.0,13.0,22,0.00,,,0.00,,2013-02-28 08:52:00,
2013-02-28 01:02:00,43.0,7.0,30.23,ESE,118,6.0,11.0,22,0.00,,,0.00,,2013-02-28 09:02:00,
2013-02-28 01:11:00,43.0,7.0,30.23,ESE,118,6.0,11.0,22,0.00,,,0.00,,2013-02-28 09:11:00,
2013-02-28 01:21:00,43.0,7.0,30.24,ESE,111,6.0,13.0,22,0.00,,,0.00,,2013-02-28 09:21:00,
2013-02-28 01:31:00,44.0,7.0,30.24,ESE,110,7.0,13.0,21,0.00,,,0.00,,2013-02-28 09:31:00,
2013-02-28 01:41:00,44.0,7.0,30.24,ESE,110,7.0,13.0,21,0.00,,,0.00,,2013-02-28 09:41:00,
2013-02-28 01:51:00,44.0,7.0,30.23,ESE,123,8.0,14.0,21,0.00,,,0.00,,2013-02-28 09:51:00,
2013-02-28 02:01:00,44.0,7.0,30.24,ESE,119,8.0,15.0,21,0.00,,,0.00,,2013-02-28 10:01:00,
2013-02-28 02:11:00,44.0,7.0,30.24,SE,127,8.0,14.0,21,0.00,,,0.00,,2013-02-28 10:11:00,
2013-02-28 02:21:00,44.0,7.0,30.24,SE,127,8.0,14.0,21,0.00,,,0.00,,2013-02-28 10:21:00,
2013-02-28 02:31:00,44.0,8.0,30.23,SE,127,9.0,15.0,22,0.00,,,0.00,,2013-02-28 10:31:00,
2013-02-28 02:41:00,44.0,8.0,30.23,SE,127,9.0,15.0,22,0.00,,,0.00,,2013-02-28 10:41:00,
2013-02-28 02:52:00,44.0,6.0,30.23,ESE,117,11.0,19.0,20,0.00,,,0.00,,2013-02-28 10:52:00,
2013-02-28 03:01:00,44.0,7.0,30.22,ESE,121,10.0,18.0,21,0.00,,,0.00,,2013-02-28 11:01:00,
2013-02-28 03:11:00,44.0,7.0,30.22,ESE,121,10.0,18.0,21,0.00,,,0.00,,2013-02-28 11:11:00,
2013-02-28 03:21:00,44.0,6.0,30.22,SE,125,12.0,19.0,20,0.00,,,0.00,,2013-02-28 11:21:00,
2013-02-28 03:31:00,44.0,7.0,30.22,ESE,122,12.0,18.0,21,0.00,,,0.00,,2013-02-28 11:31:00,
2013-02-28 03:41:00,44.0,7.0,30.22,ESE,122,12.0,18.0,21,0.00,,,0.00,,2013-02-28 11:41:00,
2013-02-28 03:52:00,44.0,7.0,30.22,ESE,123,10.0,20.0,21,0.00,,,0.00,,2013-02-28 11:52:00,
2013-02-28 04:01:00,45.0,6.0,30.22,ESE,112,9.0,18.0,20,0.00,,,0.00,,2013-02-28 12:01:00,
2013-02-28 04:11:00,45.0,6.0,30.22,ESE,112,9.0,18.0,20,0.00,,,0.00,,2013-02-28 12:11:00,
2013-02-28 04:21:00,44.0,7.0,30.22,ESE,120,12.0,19.0,21,0.00,,,0.00,,2013-02-28 12:21:00,
2013-02-28 04:31:00,45.0,6.0,30.22,ESE,113,14.0,23.0,20,0.00,,,0.00,,2013-02-28 12:31:00,
2013-02-28 04:42:00,45.0,6.0,30.22,ESE,113,14.0,23.0,20,0.00,,,0.00,,2013-02-28 12:42:00,
2013-02-28 04:52:00,44.0,6.0,30.23,ESE,114,11.0,21.0,20,0.00,,,0.00,,2013-02-28 12:52:00,
2013-02-28 05:01:00,44.0,6.0,30.23,ESE,118,14.0,20.0,20,0.00,,,0.00,,2013-02-28 13:01:00,
2013-02-28 05:11:00,45.0,6.0,30.24,ESE,120,14.0,22.0,20,0.00,,,0.00,,2013-02-28 13:11:00,
2013-02-28 05:21:00,45.0,6.0,30.24,ESE,120,14.0,22.0,20,0.00,,,0.00,,2013-02-28 13:21:00,
2013-02-28 05:31:00,44.0,7.0,30.24,ESE,118,9.0,21.0,21,0.00,,,0.00,,2013-02-28 13:31:00,
2013-02-28 05:41:00,44.0,7.0,30.24,ESE,118,9.0,21.0,21,0.00,,,0.00,,2013-02-28 13:41:00,
2013-02-28 05:52:00,45.0,6.0,30.24,ESE,121,14.0,21.0,20,0.00,,,0.00,,2013-02-28 13:52:00,
2013-02-28 06:01:00,45.0,6.0,30.24,ESE,119,11.0,18.0,20,0.00,,,0.00,,2013-02-28 14:01:00,
2013-02-28 06:11:00,45.0,6.0,30.25,ESE,116,11.0,17.0,20,0.00,,,0.00,,2013-02-28 14:11:00,
2013-02-28 06:21:00,45.0,6.0,30.25,ESE,116,11.0,17.0,20,0.00,,,0.00,,2013-02-28 14:21:00,
2013-02-28 06:31:00,45.0,6.0,30.26,SE,125,9.0,18.0,20,0.00,,,0.00,,2013-02-28 14:31:00,
2013-02-28 06:41:00,45.0,6.0,30.26,SE,124,11.0,18.0,20,0.00,,,0.00,,2013-02-28 14:41:00,
2013-02-28 06:52:00,45.0,6.0,30.26,SE,124,11.0,18.0,20,0.00,,,0.00,,2013-02-28 14:52:00,
2013-02-28 07:01:00,46.0,7.0,30.26,ESE,114,11.0,22.0,20,0.00,,,0.00,,2013-02-28 15:01:00,
2013-02-28 07:11:00,47.0,8.0,30.26,ESE,119,11.0,18.0,20,0.00,,,0.00,,2013-02-28 15:11:00,
2013-02-28 07:31:00,48.0,9.0,30.27,ESE,117,12.0,20.0,20,0.00,,,0.00,,2013-02-28 15:31:00,
2013-02-28 07:52:00,49.0,10.0,30.26,ESE,118,13.0,20.0,20,0.00,,,0.00,,2013-02-28 15:52:00,
2013-02-28 08:01:00,49.0,10.0,30.26,ESE,113,10.0,19.0,20,0.00,,,0.00,,2013-02-28 16:01:00,
2013-02-28 08:11:00,50.0,13.0,30.27,East,100,8.0,18.0,22,0.00,,,0.00,,2013-02-28 16:11:00,
2013-02-28 08:21:00,50.0,13.0,30.27,East,100,8.0,18.0,22,0.00,,,0.00,,2013-02-28 16:21:00,
2013-02-28 08:31:00,51.0,11.0,30.27,East,98,11.0,20.0,20,0.00,,,0.00,,2013-02-28 16:31:00,
2013-02-28 08:52:00,51.0,10.0,30.27,East,100,15.0,23.0,19,0.00,,,0.00,,2013-02-28 16:52:00,
2013-02-28 09:01:00,51.0,11.0,30.29,East,83,17.0,27.0,20,0.00,,,0.00,,2013-02-28 17:01:00,
2013-02-28 09:11:00,52.0,12.0,30.29,East,88,14.0,25.0,20,0.00,,,0.00,,2013-02-28 17:11:00,
2013-02-28 09:31:00,52.0,10.0,30.29,East,81,22.0,29.0,18,0.00,,,0.00,,2013-02-28 17:31:00,
2013-02-28 10:01:00,52.0,10.0,30.30,East,86,18.0,29.0,18,0.00,,,0.00,,2013-02-28 18:01:00,
2013-02-28 10:11:00,53.0,11.0,30.31,East,85,17.0,25.0,18,0.00,,,0.00,,2013-02-28 18:11:00,
2013-02-28 10:31:00,53.0,11.0,30.30,East,91,18.0,25.0,18,0.00,,,0.00,,2013-02-28 18:31:00,
2013-02-28 10:41:00,53.0,12.0,30.30,East,89,17.0,30.0,19,0.00,,,0.00,,2013-02-28 18:41:00,
2013-02-28 11:01:00,54.0,11.0,30.30,East,85,19.0,31.0,18,0.00,,,0.00,,2013-02-28 19:01:00,
2013-02-28 11:11:00,54.0,11.0,30.30,East,83,17.0,30.0,18,0.00,,,0.00,,2013-02-28 19:11:00,
2013-02-28 11:31:00,54.0,13.0,30.29,East,79,18.0,30.0,19,0.00,,,0.00,,2013-02-28 19:31:00,
2013-02-28 11:51:00,54.0,11.0,30.29,ENE,76,20.0,30.0,18,0.00,,,0.00,,2013-02-28 19:51:00,
2013-02-28 12:01:00,54.0,11.0,30.29,East,84,16.0,24.0,18,0.00,,,0.00,,2013-02-28 20:01:00,
2013-02-28 12:11:00,54.0,11.0,30.29,East,84,16.0,24.0,18,0.00,,,0.00,,2013-02-28 20:11:00,
2013-02-28 12:31:00,55.0,12.0,30.29,East,94,14.0,22.0,18,0.00,,,0.00,,2013-02-28 20:31:00,
2013-02-28 12:41:00,55.0,12.0,30.29,East,94,14.0,22.0,18,0.00,,,0.00,,2013-02-28 20:41:00,
2013-02-28 12:52:00,56.0,14.0,30.28,East,88,14.0,27.0,19,0.00,,,0.00,,2013-02-28 20:52:00,
2013-02-28 13:01:00,57.0,15.0,30.27,ESE,112,16.0,23.0,19,0.00,,,0.00,,2013-02-28 21:01:00,
2013-02-28 13:22:00,56.0,14.0,30.27,ESE,103,13.0,25.0,19,0.00,,,0.00,,2013-02-28 21:22:00,
2013-02-28 13:31:00,57.0,14.0,30.27,East,80,16.0,21.0,18,0.00,,,0.00,,2013-02-28 21:31:00,
2013-02-28 13:52:00,56.0,13.0,30.27,ENE,78,16.0,23.0,18,0.00,,,0.00,,2013-02-28 21:52:00,
2013-02-28 14:01:00,56.0,13.0,30.27,East,80,14.0,25.0,18,0.00,,,0.00,,2013-02-28 22:01:00,
2013-02-28 14:11:00,56.0,13.0,30.27,East,81,11.0,20.0,18,0.00,,,0.00,,2013-02-28 22:11:00,
2013-02-28 14:21:00,56.0,13.0,30.27,East,81,11.0,20.0,18,0.00,,,0.00,,2013-02-28 22:21:00,
2013-02-28 14:31:00,56.0,12.0,30.26,ENE,77,16.0,22.0,17,0.00,,,0.00,,2013-02-28 22:31:00,
2013-02-28 14:41:00,56.0,12.0,30.26,ENE,77,16.0,22.0,17,0.00,,,0.00,,2013-02-28 22:41:00,
2013-02-28 14:52:00,56.0,13.0,30.26,East,79,14.0,25.0,18,0.00,,,0.00,,2013-02-28 22:52:00,
2013-02-28 15:01:00,56.0,13.0,30.25,East,88,15.0,24.0,18,0.00,,,0.00,,2013-02-28 23:01:00,
2013-02-28 15:11:00,55.0,12.0,30.26,ENE,76,16.0,23.0,18,0.00,,,0.00,,2013-02-28 23:11:00,
2013-02-28 15:21:00,55.0,12.0,30.26,ENE,76,16.0,23.0,18,0.00,,,0.00,,2013-02-28 23:21:00,
2013-02-28 15:31:00,55.0,11.0,30.25,East,81,15.0,22.0,17,0.00,,,0.00,,2013-02-28 23:31:00,
2013-02-28 15:41:00,55.0,11.0,30.25,East,81,15.0,22.0,17,0.00,,,0.00,,2013-02-28 23:41:00,
2013-02-28 15:52:00,55.0,11.0,30.25,East,80,17.0,25.0,17,0.00,,,0.00,,2013-02-28 23:52:00,
2013-02-28 16:01:00,55.0,12.0,30.25,ENE,78,14.0,23.0,18,0.00,,,0.00,,2013-03-01 00:01:00,
2013-02-28 16:11:00,55.0,12.0,30.25,ENE,78,14.0,23.0,18,0.00,,,0.00,,2013-03-01 00:11:00,
2013-02-28 16:22:00,55.0,12.0,30.24,ENE,77,12.0,25.0,18,0.00,,,0.00,,2013-03-01 00:22:00,
2013-02-28 16:32:00,55.0,12.0,30.24,ENE,78,13.0,21.0,18,0.00,,,0.00,,2013-03-01 00:32:00,
2013-02-28 16:41:00,55.0,12.0,30.24,ENE,78,13.0,21.0,18,0.00,,,0.00,,2013-03-01 00:41:00,
2013-02-28 16:51:00,54.0,11.0,30.24,East,83,10.0,18.0,18,0.00,,,0.00,,2013-03-01 00:51:00,
2013-02-28 17:01:00,54.0,13.0,30.24,ENE,77,14.0,20.0,19,0.00,,,0.00,,2013-03-01 01:01:00,
2013-02-28 17:11:00,53.0,13.0,30.24,East,81,11.0,18.0,20,0.00,,,0.00,,2013-03-01 01:11:00,
2013-02-28 17:21:00,53.0,13.0,30.24,East,81,11.0,18.0,20,0.00,,,0.00,,2013-03-01 01:21:00,
2013-02-28 17:31:00,52.0,12.0,30.25,East,79,9.0,14.0,20,0.00,,,0.00,,2013-03-01 01:31:00,
2013-02-28 17:41:00,52.0,12.0,30.25,East,79,9.0,14.0,20,0.00,,,0.00,,2013-03-01 01:41:00,
2013-02-28 17:52:00,51.0,12.0,30.26,ESE,109,5.0,12.0,21,0.00,,,0.00,,2013-03-01 01:52:00,
2013-02-28 18:01:00,50.0,12.0,30.27,ESE,113,6.0,13.0,21,0.00,,,0.00,,2013-03-01 02:01:00,
2013-02-28 18:11:00,50.0,12.0,30.27,East,94,8.0,13.0,21,0.00,,,0.00,,2013-03-01 02:11:00,
2013-02-28 18:21:00,50.0,12.0,30.27,East,94,8.0,13.0,21,0.00,,,0.00,,2013-03-01 02:21:00,
2013-02-28 18:31:00,50.0,12.0,30.27,East,86,9.0,13.0,21,0.00,,,0.00,,2013-03-01 02:31:00,
2013-02-28 18:41:00,50.0,12.0,30.27,East,86,9.0,13.0,21,0.00,,,0.00,,2013-03-01 02:41:00,
2013-02-28 18:52:00,50.0,11.0,30.27,East,88,8.0,12.0,20,0.00,,,0.00,,2013-03-01 02:52:00,
2013-02-28 19:01:00,50.0,11.0,30.28,East,95,7.0,12.0,20,0.00,,,0.00,,2013-03-01 03:01:00,
2013-02-28 19:11:00,49.0,11.0,30.28,ESE,113,4.0,8.0,21,0.00,,,0.00,,2013-03-01 03:11:00,
2013-02-28 19:21:00,49.0,11.0,30.28,ESE,113,4.0,8.0,21,0.00,,,0.00,,2013-03-01 03:21:00,
2013-02-28 19:31:00,48.0,11.0,30.29,ESE,114,5.0,9.0,22,0.00,,,0.00,,2013-03-01 03:31:00,
2013-02-28 19:41:00,48.0,11.0,30.29,ESE,114,5.0,9.0,22,0.00,,,0.00,,2013-03-01 03:41:00,
2013-02-28 19:51:00,48.0,11.0,30.29,ESE,108,4.0,7.0,22,0.00,,,0.00,,2013-03-01 03:51:00,
2013-02-28 20:01:00,49.0,11.0,30.29,East,90,6.0,9.0,21,0.00,,,0.00,,2013-03-01 04:01:00,
2013-02-28 20:11:00,49.0,11.0,30.29,East,90,6.0,9.0,21,0.00,,,0.00,,2013-03-01 04:11:00,
2013-02-28 20:21:00,49.0,11.0,30.29,East,91,5.0,8.0,21,0.00,,,0.00,,2013-03-01 04:21:00,
2013-02-28 20:31:00,49.0,11.0,30.32,ESE,108,3.0,10.0,21,0.00,,,0.00,,2013-03-01 04:31:00,
2013-02-28 20:41:00,49.0,11.0,30.32,ESE,108,3.0,10.0,21,0.00,,,0.00,,2013-03-01 04:41:00,
2013-02-28 20:52:00,49.0,11.0,30.33,ESE,112,2.0,7.0,21,0.00,,,0.00,,2013-03-01 04:52:00,
2013-02-28 21:01:00,50.0,12.0,30.33,ESE,106,3.0,7.0,21,0.00,,,0.00,,2013-03-01 05:01:00,
2013-02-28 21:11:00,50.0,12.0,30.33,ESE,106,3.0,7.0,21,0.00,,,0.00,,2013-03-01 05:11:00,
2013-02-28 21:22:00,50.0,12.0,30.33,ESE,102,5.0,8.0,21,0.00,,,0.00,,2013-03-01 05:22:00,
2013-02-28 21:32:00,50.0,12.0,30.33,East,91,6.0,13.0,21,0.00,,,0.00,,2013-03-01 05:32:00,
2013-02-28 21:41:00,50.0,12.0,30.33,East,91,6.0,13.0,21,0.00,,,0.00,,2013-03-01 05:41:00,
2013-02-28 21:52:00,51.0,11.0,30.32,East,79,9.0,13.0,20,0.00,,,0.00,,2013-03-01 05:52:00,
2013-02-28 22:01:00,50.0,12.0,30.32,ENE,75,6.0,11.0,21,0.00,,,0.00,,2013-03-01 06:01:00,
2013-02-28 22:11:00,50.0,12.0,30.32,ESE,104,2.0,12.0,21,0.00,,,0.00,,2013-03-01 06:11:00,
2013-02-28 22:21:00,50.0,12.0,30.32,ESE,104,2.0,12.0,21,0.00,,,0.00,,2013-03-01 06:21:00,
2013-02-28 22:31:00,49.0,12.0,30.32,ESE,122,2.0,7.0,22,0.00,,,0.00,,2013-03-01 06:31:00,
2013-02-28 22:41:00,49.0,12.0,30.32,ESE,122,2.0,7.0,22,0.00,,,0.00,,2013-03-01 06:41:00,
2013-02-28 22:52:00,49.0,12.0,30.32,East,95,8.0,11.0,22,0.00,,,0.00,,2013-03-01 06:52:00,
2013-02-28 23:01:00,49.0,12.0,30.31,ESE,109,6.0,13.0,22,0.00,,,0.00,,2013-03-01 07:01:00,
2013-02-28 23:11:00,49.0,12.0,30.31,ESE,109,6.0,13.0,22,0.00,,,0.00,,2013-03-01 07:11:00,
2013-02-28 23:21:00,49.0,13.0,30.31,SE,130,6.0,8.0,23,0.00,,,0.00,,2013-03-01 07:21:00,
2013-02-28 23:31:00,49.0,13.0,30.32,SE,126,7.0,12.0,23,0.00,,,0.00,,2013-03-01 07:31:00,
2013-02-28 23:52:00,49.0,12.0,30.32,SE,124,6.0,11.0,22,0.00,,,0.00,,2013-03-01 07:52:00,